Regional Weather Roundup
Issued by NWS

Home | Current Version | Previous Version | Text Only | Print | Product List | Glossary Off
Versions: 1 2 3 4 5 6 7 8 9 10 11 12 13 14 15 16 17 18 19 20 21 22 23 24 25 26 27 28 29 30 31 32 33 34 35 36 37 38 39 40 41 42 43 44 45 46 47 48 49 50

027
ASUS44 KLIX 052105
RWRLA
LOUISIANA WEATHER ROUNDUP
NATIONAL WEATHER SERVICE NEW ORLEANS LA
300 PM CST THU MAR 05 2015

NOTE: "FAIR" INDICATES FEW OR NO CLOUDS BELOW 12,000 FEET WITH NO
      SIGNIFICANT WEATHER AND/OR OBSTRUCTIONS TO VISIBILITY.
      SKY/WX - SKY CONDITION AND SIGNIFICANT WEATHER.
      TMP - AIR TEMPERATURE.    DP   - DEWPOINT TEMPERATURE.
      RH  - RELATIVE HUMIDITY.  PRES - PRESSURE.
      HX  - HEAT INDEX.         WCI  - WIND CHILL INDEX.

*  THESE STATIONS ARE NOT NWS OR FAA STATIONS AND ARE NOT UNDER
   NWS QUALITY CONTROL.

LAZ040-048-061>063-065-066-069-052200-
SOUTHEAST LOUISIANA

CITY           SKY/WX    TMP DP  RH WIND       PRES   REMARKS
N.O. AUDUBON     N/A     42  38  87 MISG        N/A
N.O. INTL ARPT CLOUDY    39  32  76 N22G32    30.28R WCI  29
N.O. LAKEFRONT CLOUDY    42  34  73 N30G38    30.26F
SLIDELL        CLOUDY    38  31  76 N18G29    30.25S WCI  28
BATON ROUGE    CLOUDY    34  29  82 N13G23    30.36R WCI  25
BOOTHVILLE     CLOUDY    48  42  80 N18G31    30.19R
BELLE CHASSE   CLOUDY    41  31  67 N16G29    30.23R
BOGALUSA*      LGT RAIN  36  32  85 N15       30.34R WCI  27
GALLIANO*      CLOUDY    44  36  74 N22G31    30.22R
NEW ROADS*     CLOUDY    33  28  79 N21G29    30.39R WCI  21
GONZALES*      CLOUDY    36  32  86 N16G25    30.32R WCI  26
HAMMOND*       CLOUDY    36  30  80 N21G26    30.34S WCI  24
HOUMA*         NOT AVBL
PORT FOURCHON* CLOUDY    46  39  76 N25G37    30.23R

$$

LAZ041-044-053-054-052200-
SOUTHWEST LOUISIANA

CITY           SKY/WX    TMP DP  RH WIND       PRES   REMARKS
LAKE CHARLES   MOSUNNY   42  32  67 N22G30    30.38F
LAFAYETTE      CLOUDY    35  28  75 N21G33    30.36S WCI  24
PATTERSON      CLOUDY    37  30  75 N15G28    30.29R WCI  28
SALT POINT       N/A     37  31  78 N17G30    30.27F WCI  27
NEW IBERIA     FLURRIES  35  28  75 N22G36    30.35S WCI  23
CHENAULT AIRPK MOSUNNY   39  32  75 N18G24    30.39F WCI  30

$$

LAZ027-028-052200-
CENTRAL LOUISIANA

CITY           SKY/WX    TMP DP  RH WIND       PRES   REMARKS
FORT POLK      MOSUNNY   40  27  61 N15G23    30.42S WCI  31
ALEXANDRIA INT MOSUNNY   38  27  64 N16G23    30.44S WCI  29
ALEXANDRIA     SUNNY     38  24  57 N8G24     30.44F WCI  32

$$

LAZ001-002-052200-
NORTHWEST LOUISIANA

CITY           SKY/WX    TMP DP  RH WIND       PRES   REMARKS
SHREVEPORT     MOSUNNY   40  25  55 N20G26    30.51S WCI  30
BARKSDALE AFB  SUNNY     40  22  46 NE10G20   30.51S WCI  34
DTN SHREVEPORT SUNNY     40  18  41 N10G21    30.51F WCI  33

$$

LAZ014-016-052200-
NORTHEAST LOUISIANA

CITY           SKY/WX    TMP DP  RH WIND       PRES   REMARKS
MONROE         SUNNY     40  22  48 N16       30.49F WCI  31
TALLULAH       SUNNY     33  21  61 N25G32    30.48F WCI  20

$$




USA.gov is the U.S. government's official web portal to all federal, state and local government web resources and services.